Wager Bay, Nunavut

8:19 AM MDT on October 23, 2017 (GMT -0600)
Wager Bay

Weather History for CXWB - October, 2011

Change the Weather History Date:

Sunday, October 9, 2011

  Actual Average Record
Temperature  
Mean Temperature 30 °F -  
Max Temperature 33 °F - - ()
Min Temperature 27 °F - - ()
Degree Days  
Heating Degree Days 35    
Moisture  
Dew Point 16 °F    
Average Humidity 55    
Maximum Humidity 85    
Minimum Humidity 31    
Precipitation  
Precipitation 0.00 in - - ()
Sea Level Pressure  
Sea Level Pressure 29.72 in    
Wind  
Wind Speed 8 mph ()    
Max Wind Speed 17 mph    
Max Gust Speed 25 mph    
T = Trace of Precipitation, MM = Missing Value Source: Averaged Metar Reports

Daily Weather History Graph

Daily Weather History Graph

Search for Another Location

Airport or City:

Trip Planner

Search our weather history database for the weather conditions in past years. The results will help you decide how hot, cold, wet, or windy it might be!

Date:

Astronomy

Oct. 09, 2011 Rise Set
Actual Time 6:43 AM MDT 5:04 PM MDT
Civil Twilight 5:51 AM MDT 5:55 PM MDT
Nautical Twilight 4:52 AM MDT 6:55 PM MDT
Astronomical Twilight 3:49 AM MDT 7:57 PM MDT
Moon 4:05 PM MDT (10/9) 3:52 AM MDT (10/9)
Length of Visible Light 12h 04m
Length of Day
10h 21m
Waxing Gibbous, 95% of the Moon is Illuminated
Oct 9
Waxing Gibbous
Oct 11
Full
Oct 19
Last Quarter
Oct 26
New
Nov 2
First Quarter

Hourly Weather History & Observations

Time (MDT) Temp. Windchill Dew Point Humidity Pressure Visibility Wind Dir Wind Speed Gust Speed Precip Events Conditions
12:00 AM 30 °F - 15 °F 40% 29.60 in - East 4.6 mph - -  
12:00 AM 30.0 °F 25.2 °F 14.9 °F 53% 29.60 in - East 4.6 mph - N/A   Unknown
1:00 AM 30.0 °F 21.7 °F 16.5 °F 57% 29.60 in - East 9.2 mph - N/A   Unknown
2:00 AM 29.8 °F 18.4 °F 16.7 °F 58% 29.60 in - ENE 16.1 mph - N/A   Unknown
3:00 AM 30.0 °F 18.3 °F 14.0 °F 51% 29.61 in - NE 17.3 mph - N/A   Unknown
4:00 AM 29.8 °F 18.0 °F 14.2 °F 52% 29.62 in - NE 17.3 mph - N/A   Unknown
5:00 AM 29.8 °F 18.0 °F 13.6 °F 51% 29.62 in - NE 17.3 mph 25.3 mph N/A   Unknown
6:00 AM 30 °F - 13 °F 35% 29.63 in - NE 16.1 mph - -  
6:00 AM 30.0 °F 18.7 °F 13.1 °F 49% 29.63 in - NE 16.1 mph - N/A   Unknown
7:00 AM 30.2 °F 25.4 °F 12.2 °F 47% 29.65 in - ENE 4.6 mph - N/A   Unknown
8:00 AM 30.2 °F 21.9 °F 11.3 °F 45% 29.65 in - North 9.2 mph - N/A   Unknown
9:00 AM 30.9 °F 23.5 °F 10.8 °F 43% 29.66 in - East 8.1 mph - N/A   Unknown
10:00 AM 31.3 °F 24.7 °F 10.6 °F 42% 29.68 in - North 6.9 mph - N/A   Unknown
11:00 AM 31.6 °F 23.7 °F 12.0 °F 44% 29.69 in - North 9.2 mph - N/A   Unknown
12:00 PM 32 °F - 13 °F 31% 29.70 in - North 9.2 mph - -  
12:00 PM 31.6 °F 23.7 °F 12.9 °F 46% 29.70 in - North 9.2 mph - N/A   Unknown
1:00 PM 31.6 °F 24.4 °F 13.5 °F 47% 29.73 in - North 8.1 mph - N/A   Unknown
2:00 PM 33.1 °F 27.7 °F 17.4 °F 53% 29.75 in - WNW 5.8 mph - N/A   Unknown
3:00 PM 33.1 °F 27.7 °F 18.9 °F 56% 29.77 in - NW 5.8 mph - N/A   Unknown
4:00 PM 32.9 °F 26.7 °F 22.6 °F 66% 29.79 in - WNW 6.9 mph - N/A   Unknown
5:00 PM 30.4 °F 26.9 °F 22.1 °F 71% 29.80 in - North 3.5 mph - N/A   Unknown
6:00 PM 29 °F - 20 °F 58% 29.82 in - North 3.5 mph - -  
6:00 PM 28.9 °F 25.2 °F 20.1 °F 70% 29.82 in - North 3.5 mph - N/A   Unknown
7:00 PM 28.2 °F - 20.3 °F 72% 29.85 in - WSW 2.3 mph - N/A   Unknown
8:00 PM 30.2 °F - 23.7 °F 77% 29.86 in - North 1.2 mph - N/A   Unknown
9:00 PM 30.7 °F 24.9 °F 26.6 °F 85% 29.88 in - NNW 5.8 mph - N/A   Unknown
10:00 PM 30.7 °F 22.6 °F 22.8 °F 72% 29.89 in - NE 9.2 mph - N/A   Unknown
11:00 PM 29.8 °F 20.3 °F 16.3 °F 57% 29.92 in - NE 11.5 mph 19.6 mph N/A   Unknown